Retour au catalogue

COSMOS 2434

GLONASS

ActifNavigationMEO
NORAD 32393·PAYLOAD·🇷🇺 Russia

Lancé Dec 25, 2007 depuis Baikonur Cosmodrome

Loading…

Prochains Passages (prochaines 24 heures)

TLE

FraisSource: CelesTrak SupGP

Époque: Sep 12, 2026, 23:59 UTC

1 32393C 07065A   26255.99979167  .00000000  00000+0  00000+0 0  2558
2 32393  64.3191 188.9561 0001714  41.2433 103.5928  2.13101096    16

Suivez COSMOS 2434 en temps réel avec AllMySat

Download on the App Store